Regional Weather Roundup
Issued by NWS

Home | Current Version | Previous Version | Text Only | Print | Product List | Glossary On
Versions: 1 2 3 4 5 6 7 8 9 10 11 12 13 14 15 16 17 18 19 20 21 22 23 24 25 26 27 28 29 30 31 32 33 34 35 36 37 38 39 40 41 42 43 44 45 46 47 48 49 50
000
ASUS43 KMKX 270817
RWRWI

WISCONSIN REGIONAL WEATHER ROUNDUP
NATIONAL WEATHER SERVICE MILWAUKEE/SULLIVAN WI
300 AM CDT WED MAY 27 2015

NOTE: "FAIR" INDICATES FEW OR NO CLOUDS BELOW 12,000 FEET WITH NO
SIGNIFICANT WEATHER AND/OR OBSTRUCTIONS TO VISIBILITY.

WIZ001-002-006>008-014>016-023>028-270900-
NORTHWEST WISCONSIN

CITY           SKY/WX    TMP DP  RH WIND       PRES   REMARKS
SUPERIOR ARPT  CLOUDY    48  48  98 CALM      29.78S
ASHLAND        CLOUDY    52  52 100 SW5       29.77S
HAYWARD        CLOUDY    53  51  93 CALM      29.79S
SIREN            N/A     52  51  98 CALM      29.81S FOG
CUMBERLAND     CLOUDY    52  52 100 NW3       29.80S
RICE LAKE      CLOUDY    55  53  93 CALM      29.81S
CHETEK         LGT RAIN  55  55 100 CALM      29.80S
LADYSMITH      LGT RAIN  54  53  96 NW5       29.79R
EAU CLAIRE     LGT RAIN  57  55  93 W5        29.79S
MENOMONIE      DRIZZLE   57  57  99 W6        29.81R
NEW RICHMOND   CLOUDY    55  55 100 W3        29.83R FOG
OSCEOLA        CLOUDY    55  55 100 W3        29.85R
$$

WIZ003>005-009-010-017-018-270900-
NORTH CENTRAL WISCONSIN

CITY           SKY/WX    TMP DP  RH WIND       PRES   REMARKS
MANITOWISH WTR RAIN      51  51 100 N7        29.73S
ARBOR VITAE    LGT RAIN  53  51  95 N12       29.72S
WOODRUFF       LGT RAIN  53  51  95 N12       29.72S
RHINELANDER    RAIN      53  52  96 NW9G17    29.70F FOG
EAGLE RIVER    RAIN      52  52 100 NW12G20   29.71R
LAND O LAKES   LGT RAIN  52  52  99 NW7       29.72R
PHILLIPS       CLOUDY    50  50 100 W3        29.75S
TOMAHAWK       LGT RAIN  53  51  95 NW8       29.72S
MEDFORD        RAIN      53  53  97 W10       29.75R
MERRILL        DRIZZLE   55  55  98 NW14      29.72R
$$

WIZ029-030-035-036-043>047-270900-
CENTRAL WISCONSIN

CITY           SKY/WX    TMP DP  RH WIND       PRES   REMARKS
WAUSAU         LGT RAIN  56  55  97 NW14      29.71R FOG
MOSINEE        DRIZZLE   55  55 100 W12       29.73R
MARSHFIELD     LGT RAIN  57  54  89 W10G22    29.76R
STEVENS POINT  RAIN      56  55  97 W10G17    29.73R
WAUPACA        CLOUDY    63  61  93 W14G22    29.72R
WAUTOMA        NOT AVBL
WISC RAPIDS    LGT RAIN  59  55  87 W10       29.77R
CAMP DOUGLAS   MOCLDY    59  59 100 W8          N/A
$$

WIZ011>013-019>022-031-037>040-048>050-270900-
NORTHEAST WISCONSIN

CITY           SKY/WX    TMP DP  RH WIND       PRES   REMARKS
ANTIGO         CLOUDY    57  56  99 W14G20    29.68R
SHAWANO        LGT RAIN  63  61  93 W8        29.66R
OCONTO         CLOUDY    61  61 100 SW8       29.61R
STURGEON BAY   CLOUDY    61  57  88 SW17G24   29.64S
GREEN BAY      CLOUDY    64  59  83 W17G25    29.68R
MANITOWOC      NOT AVBL
APPLETON       CLOUDY    61  55  82 SW18G25   29.72R
CLINTONVILLE   CLOUDY    61  59  94 W15G21    29.68R
OSHKOSH        CLOUDY    63  57  81 SW9G18    29.74R
$$

WIZ032>034-041-042-053>061-270900-
SOUTHWEST WISCONSIN

CITY           SKY/WX    TMP DP  RH WIND       PRES   REMARKS
LA CROSSE      LGT RAIN  61  57  87 NW9       29.81R
SPARTA         CLOUDY    59  58  97 W3        29.81R
VIROQUA        CLOUDY    58  58 100 W6        29.81F
BOSCOBEL       CLOUDY    61  58  90 S6        29.82R
PRAIRIE DU CHI CLOUDY    61  58  89 CALM      29.82S
PLATTEVILLE    CLOUDY    60  59  97 SW5       29.83S
$$

WIZ056-057-062-063-064-067-068-270900-
SOUTH CENTRAL WISCONSIN

CITY           SKY/WX    TMP DP  RH WIND       PRES   REMARKS
REEDSBURG      CLOUDY    60  58  92 W9        29.79S
BARABOO/DELLS  CLOUDY    60  56  88 W9        29.79S
LONE ROCK      CLOUDY    60  58  92 W5        29.81S
MINERAL POINT  LGT RAIN  61  59  94 SW6       29.82S
MADISON        PTCLDY    60  57  89 VRB5      29.79S
MIDDLETON      PTCLDY    60  58  95 CALM      29.81S
WATERTOWN      MOCLDY   N/A N/A N/A SW6       29.79S
MONROE         DRIZZLE   61  59  94 SW10      29.82S
JANESVILLE     MOCLDY    61  59  94 SW5       29.81S
$$

WIZ051-052-058>065-066-070>072-270900-
SOUTHEAST WISCONSIN

CITY           SKY/WX    TMP DP  RH WIND       PRES   REMARKS
MILWAUKEE      MOCLDY    64  60  87 SW8       29.80S
WAUKESHA       PTCLDY    59  55  88 SW6       29.81S
MILWAUKEE/TIMM PTCLDY    63  55  77 SW8       29.80S
RACINE         CLOUDY    64  60  87 SW9       29.82S
BURLINGTON     CLOUDY    61  60  96 SW6       29.81S
KENOSHA        MOCLDY    63  61  93 SW9       29.81S
FOND DU LAC    CLOUDY    62  57  83 SW12      29.76S
SHEBOYGAN      CLEAR     62  57  83 SW18      29.75R
WEST BEND      PTCLDY    61  55  82 SW12      29.78S
JUNEAU         PTCLDY    58  56  94 SW9       29.80R
$$

LSZ147-162-270900-
LAKE SUPERIOR

STATION/POSITION TIME  TEMP    WIND        PRES    WAVE
                       AIR SEA DIR/SP/G            HT/PER
                 (UTC) (F)     (DEG/KT/KT) (MB)    (FT/S)
W MID LAKE BUOY  0650   41 37  230/  8/  8 1074.0F   0
DEVILS ISLAND    0700   46     240/ 12/ 13 1079.0F
PORT WING        0640   49     120/  1/  2 1088.0S
SAXON HARBOR     0700   50        CALM     1078.0
$$

LMZ867-665-643>646-270900-
LAKE MICHIGAN

STATION/POSITION TIME  TEMP    WIND        PRES    WAVE
                       AIR SEA DIR/SP/G            HT/PER
                 (UTC) (F)     (DEG/KT/KT) (MB)    (FT/S)
CHAMBERS ISLAND  0600   57     160/  6/ 10 1034.0S
N MID LAKE BUOY  0650   43 37  190/ 16/ 17 1041.0S   3/ 5
NORTHPORT PIER   0600   49     150/  7/ 11 1037.0F
SISTER BAY       0718   52     160/ 11/ 12   N/A
ALGOMA LAKESHORE 0738          260/ 28/ 39   N/A
KEWAUNEE LAKESHO 0700          220/ 17/ 25 1038.0F
SHEBOYGAN LAKESH 0700   63     220/ 15/ 19 1074.0R
PORT WASHINGTON  0600   65     240/  7/ 11 1085.0
ATWATER BUOY     0700   61 44  220/ 12/ 14   N/A
MILWAUKEE LAKESH 0700   65     220/ 10/ 13   N/A
S MID LAKE BUOY  0650   47 38  190/ 14/ 16   N/A     2/ 4
KENOSHA   LAKESH 0700   66     230/  9/ 13   N/A
$$

TC  - TEMPERATURE IN CELSIUS
VSB - VISIBILITY IN STATUTE MILES
WCI - WIND CHILL INDEX
HX  - HEAT INDEX




USA.gov is the U.S. government's official web portal to all federal, state and local government web resources and services.